K4VI Weather Reports


Display with metric or nautical units.
time (UTC)temp
F
wind
direction
speed
MPH
gust
MPH
rain 1hr
in
rain 24hr
in
rain mn
in
humidity
%
barometer
mb
20260507210716 53 274 2.0 6.0 0.00 0.20 0.04 40 1032.7
20260507210003 52 286 2.0 6.0 0.00 0.21 0.04 43 1032.9
20260507205503 52 317 3.0 10.0 0.00 0.22 0.04 41 1033.0
20260507205220 52 281 4.0 10.0 0.00 0.22 0.04 39 1033.0
20260507204503 52 256 4.0 10.0 0.00 0.23 0.04 40 1033.1
20260507204003 52 291 4.0 11.0 0.00 0.24 0.04 41 1033.1
20260507203503 51 289 4.0 11.0 0.00 0.25 0.04 42 1033.2
20260507203003 51 265 4.0 12.0 0.00 0.25 0.04 41 1033.3
20260507202503 51 273 4.0 12.0 0.00 0.25 0.04 41 1033.4
20260507202003 52 180 3.0 9.0 0.00 0.26 0.04 40 1033.3
20260507201503 51 145 3.0 9.0 0.00 0.26 0.04 41 1033.4
20260507201003 51 162 2.0 9.0 0.00 0.27 0.04 45 1033.4
20260507200503 50 274 2.0 9.0 0.00 0.27 0.04 46 1033.4
20260507200003 49 271 3.0 9.0 0.00 0.27 0.04 42 1033.4
20260507195503 49 269 3.0 9.0 0.00 0.28 0.04 41 1033.5
20260507195221 50 282 3.0 7.0 0.00 0.28 0.04 43 1033.5
20260507194503 49 264 4.0 8.0 0.00 0.29 0.04 42 1033.6
20260507194003 49 257 3.0 8.0 0.00 0.29 0.04 41 1033.7
20260507193503 49 236 4.0 9.0 0.00 0.29 0.04 42 1033.6
20260507193003 49 242 4.0 9.0 0.00 0.30 0.04 40 1033.7
20260507192503 49 241 3.0 9.0 0.00 0.30 0.04 42 1033.7
20260507192003 48 242 3.0 7.0 0.00 0.30 0.04 42 1033.7
20260507191503 48 262 3.0 10.0 0.00 0.30 0.04 41 1033.8
20260507191003 48 273 5.0 10.0 0.00 0.31 0.04 42 1033.8
20260507190503 48 279 4.0 10.0 0.00 0.31 0.04 42 1033.9
20260507190004 48 276 3.0 7.0 0.00 0.31 0.04 43 1034.0
20260507185503 47 262 4.0 10.0 0.00 0.31 0.04 45 1034.0
20260507185003 47 260 4.0 10.0 0.00 0.31 0.04 42 1034.0
20260507184503 47 273 3.0 9.0 0.00 0.31 0.04 44 1034.0
20260507184218 46 273 4.0 9.0 0.00 0.31 0.04 44 1034.0
20260507183503 46 274 3.0 8.0 0.00 0.32 0.04 42 1034.1
20260507183003 46 265 3.0 8.0 0.00 0.32 0.04 45 1034.1
20260507182717 46 265 4.0 10.0 0.00 0.32 0.04 47 1034.1
20260507182003 45 281 5.0 10.0 0.00 0.32 0.04 45 1034.2
20260507181717 45 264 5.0 10.0 0.00 0.32 0.04 45 1034.4
20260507181003 44 253 4.0 9.0 0.00 0.32 0.04 49 1034.3
20260507180503 44 258 5.0 10.0 0.00 0.32 0.04 48 1034.4
20260507180221 44 261 5.0 10.0 0.00 0.32 0.04 49 1034.4
20260507175503 43 258 5.0 11.0 0.01 0.32 0.04 51 1034.5
20260507175003 43 256 5.0 11.0 0.01 0.32 0.04 52 1034.5
20260507174503 42 266 5.0 10.0 0.01 0.32 0.04 51 1034.5
20260507174003 42 266 5.0 10.0 0.01 0.32 0.04 53 1034.7
20260507173503 42 257 5.0 11.0 0.01 0.32 0.04 55 1034.7
20260507173004 42 260 6.0 11.0 0.01 0.32 0.04 54 1034.8
20260507172504 41 268 6.0 10.0 0.02 0.32 0.04 54 1034.8
20260507172003 42 281 5.0 10.0 0.02 0.32 0.04 54 1034.9
20260507171503 42 281 4.0 11.0 0.02 0.32 0.04 56 1034.9
20260507171003 41 261 5.0 11.0 0.03 0.32 0.04 57 1034.9
20260507170503 41 279 6.0 12.0 0.03 0.32 0.04 54 1034.8
20260507170217 41 297 6.0 14.0 0.03 0.32 0.04 55 1035.0
20260507165503 40 307 6.0 14.0 0.03 0.31 0.03 56 1035.1
20260507165003 40 301 6.0 14.0 0.03 0.31 0.03 57 1035.1
20260507164503 40 305 8.0 20.0 0.03 0.31 0.03 54 1035.2
20260507164003 39 299 8.0 20.0 0.03 0.31 0.03 52 1035.0
20260507163503 39 292 7.0 13.0 0.03 0.31 0.03 57 1035.1
20260507163003 39 302 6.0 12.0 0.03 0.31 0.03 54 1035.0
20260507162503 39 291 5.0 11.0 0.02 0.30 0.02 58 1035.1
20260507162003 39 276 6.0 11.0 0.02 0.30 0.02 58 1035.0
20260507161719 39 273 6.0 11.0 0.02 0.30 0.02 57 1035.1
20260507161217 39 286 5.0 10.0 0.01 0.29 0.01 57 1035.1
20260507160503 39 293 4.0 11.0 0.01 0.29 0.01 57 1035.0
20260507160003 38 287 6.0 14.0 0.01 0.29 0.01 54 1035.1
20260507155503 38 294 6.0 14.0 0.00 0.28 0.00 52 1035.0
20260507155003 38 312 7.0 13.0 0.00 0.28 0.00 52 1034.9
20260507154503 38 318 8.0 14.0 0.00 0.28 0.00 49 1035.0
20260507154003 38 307 6.0 14.0 0.00 0.28 0.00 50 1035.0
20260507153504 38 300 6.0 14.0 0.00 0.28 0.00 52 1035.0
20260507153003 38 305 6.0 14.0 0.00 0.28 0.00 51 1035.0
20260507152503 38 304 6.0 13.0 0.00 0.28 0.00 52 1035.0
20260507152003 37 305 6.0 13.0 0.00 0.28 0.00 50 1035.0
20260507151719 37 309 6.0 12.0 0.00 0.28 0.00 49 1035.0
20260507151003 37 310 7.0 14.0 0.00 0.28 0.00 51 1035.0
20260507150503 36 310 8.0 14.0 0.00 0.28 0.00 51 1035.0
20260507150003 36 311 9.0 13.0 0.00 0.28 0.00 49 1035.0
20260507145503 36 312 8.0 13.0 0.00 0.28 0.00 49 1034.9
20260507145003 36 315 8.0 14.0 0.00 0.28 0.00 50 1034.9
20260507144503 36 320 7.0 14.0 0.00 0.28 0.00 49 1034.8
20260507144003 35 320 6.0 11.0 0.00 0.28 0.00 51 1034.8
20260507143718 35 317 6.0 13.0 0.00 0.28 0.00 51 1034.9
20260507143003 35 313 9.0 16.0 0.00 0.28 0.00 51 1034.8
20260507142503 35 315 10.0 16.0 0.00 0.28 0.00 50 1034.8
20260507142217 35 313 10.0 16.0 0.00 0.28 0.00 49 1034.8
20260507141503 35 316 10.0 16.0 0.00 0.28 0.00 49 1034.8
20260507141003 34 314 9.0 16.0 0.00 0.28 0.00 49 1034.9
20260507140503 34 314 8.0 16.0 0.00 0.28 0.00 50 1034.9
20260507140003 34 315 7.0 12.0 0.00 0.28 0.00 51 1035.0
20260507135503 34 315 8.0 15.0 0.00 0.28 0.00 52 1035.1
20260507135003 34 316 9.0 15.0 0.00 0.28 0.00 51 1035.1
20260507134503 34 314 8.0 13.0 0.00 0.28 0.00 51 1035.0
20260507134003 33 311 7.0 13.0 0.00 0.28 0.00 53 1034.9
20260507133503 33 311 5.0 11.0 0.00 0.28 0.00 53 1034.8
20260507133003 33 314 3.0 8.0 0.00 0.28 0.00 54 1034.8
20260507132503 33 318 2.0 8.0 0.00 0.28 0.00 55 1034.7
20260507132003 34 316 4.0 13.0 0.00 0.28 0.00 54 1034.6
20260507131503 34 315 7.0 14.0 0.00 0.28 0.00 50 1034.6
20260507131003 34 315 8.0 14.0 0.00 0.28 0.00 50 1034.5
20260507130503 33 314 8.0 14.0 0.00 0.28 0.00 52 1034.5
20260507130220 33 314 8.0 14.0 0.00 0.28 0.00 51 1034.5
20260507125503 32 313 7.0 14.0 0.00 0.28 0.00 56 1034.4
20260507125003 32 312 6.0 12.0 0.00 0.28 0.00 55 1034.6
20260507124718 32 312 6.0 12.0 0.00 0.28 0.00 54 1034.5
20260507124003 31 311 5.0 10.0 0.00 0.28 0.00 54 1034.4
20260507123504 31 308 6.0 12.0 0.00 0.28 0.00 56 1034.4
20260507123003 31 303 6.0 12.0 0.00 0.28 0.00 57 1034.4
20260507122503 30 304 6.0 12.0 0.00 0.28 0.00 58 1034.4
20260507122003 30 309 6.0 12.0 0.00 0.28 0.00 60 1034.3
20260507121721 30 310 7.0 12.0 0.00 0.28 0.00 59 1034.3
20260507121003 28 307 5.0 10.0 0.00 0.28 0.00 62 1034.3
20260507120717 28 312 3.0 10.0 0.00 0.28 0.00 63 1034.4
20260507120004 27 334 2.0 4.0 0.00 0.28 0.00 65 1034.4
20260507115503 27 318 2.0 4.0 0.00 0.28 0.00 65 1034.4
20260507115221 28 309 2.0 4.0 0.00 0.28 0.00 63 1034.4
20260507114503 28 304 3.0 7.0 0.00 0.28 0.00 61 1034.5
20260507114003 29 302 4.0 10.0 0.00 0.28 0.00 59 1034.4
20260507113503 29 306 5.0 11.0 0.00 0.28 0.00 58 1034.4
20260507113218 29 304 5.0 11.0 0.00 0.28 0.00 59 1034.3
20260507112503 29 306 5.0 11.0 0.00 0.28 0.00 58 1034.3
20260507112003 29 302 5.0 12.0 0.00 0.28 0.00 58 1034.2
20260507111717 29 300 5.0 12.0 0.00 0.28 0.00 59 1034.2
20260507111004 29 304 4.0 14.0 0.00 0.28 0.00 61 1034.0
20260507110503 28 299 5.0 14.0 0.00 0.28 0.00 62 1034.0
20260507110003 29 305 5.0 10.0 0.00 0.28 0.00 62 1034.0
20260507105503 28 307 5.0 10.0 0.00 0.28 0.00 63 1034.0
20260507105217 28 300 3.0 10.0 0.00 0.28 0.00 64 1034.2
20260507104720 28 298 2.0 10.0 0.00 0.28 0.00 63 1034.1
20260507104003 29 308 4.0 12.0 0.00 0.28 0.00 63 1034.1
20260507103503 30 311 7.0 16.0 0.00 0.28 0.00 61 1034.1
20260507103003 29 315 8.0 16.0 0.00 0.28 0.00 60 1034.0
20260507102503 29 311 5.0 14.0 0.00 0.28 0.00 62 1034.1
20260507102003 28 287 3.0 11.0 0.00 0.28 0.00 66 1034.2
20260507101503 29 285 4.0 11.0 0.00 0.28 0.00 63 1034.2
20260507101003 29 298 5.0 12.0 0.00 0.28 0.00 64 1034.1
20260507100503 29 304 6.0 14.0 0.00 0.28 0.00 63 1034.0
20260507100003 29 299 6.0 14.0 0.00 0.28 0.00 63 1033.8
20260507095503 29 296 6.0 13.0 0.00 0.28 0.00 63 1033.8
20260507095004 29 305 7.0 14.0 0.00 0.28 0.00 62 1033.9
20260507094503 30 313 9.0 16.0 0.00 0.28 0.00 62 1033.9
20260507094003 30 316 10.0 16.0 0.00 0.28 0.00 63 1034.0
20260507093503 29 316 9.0 14.0 0.00 0.28 0.00 64 1034.0
20260507093003 29 312 7.0 12.0 0.00 0.28 0.00 66 1033.9
20260507092503 29 306 6.0 14.0 0.00 0.28 0.00 67 1033.9
20260507092004 29 307 7.0 15.0 0.00 0.28 0.00 68 1034.0
20260507091503 29 312 9.0 16.0 0.00 0.28 0.00 67 1034.0
20260507091003 29 315 9.0 18.0 0.00 0.28 0.00 67 1034.0
20260507090503 29 314 10.0 20.0 0.00 0.28 0.00 67 1034.0
20260507090004 29 313 11.0 20.0 0.00 0.28 0.00 69 1034.0
20260507085503 29 315 12.0 22.0 0.00 0.28 0.00 68 1033.9
20260507085003 29 316 12.0 22.0 0.00 0.28 0.00 69 1034.0
20260507084503 28 314 12.0 18.0 0.00 0.28 0.00 69 1034.0
20260507084003 29 313 13.0 19.0 0.00 0.28 0.00 70 1034.1
20260507083717 29 312 12.0 19.0 0.00 0.28 0.00 70 1034.0
20260507083004 28 314 11.0 20.0 0.00 0.28 0.00 72 1034.1
20260507082503 28 314 10.0 20.0 0.00 0.28 0.00 71 1034.0
20260507082221 28 314 9.0 18.0 0.00 0.28 0.00 71 1034.0
20260507081503 28 314 8.0 18.0 0.00 0.28 0.00 72 1034.1
20260507081217 29 313 8.0 18.0 0.00 0.28 0.00 71 1034.2
20260507080503 29 313 10.0 19.0 0.00 0.28 0.00 71 1034.2
20260507080003 29 315 11.0 19.0 0.00 0.28 0.00 70 1034.0
20260507075503 29 315 12.0 21.0 0.00 0.28 0.00 71 1033.9
20260507075003 29 317 12.0 21.0 0.00 0.28 0.00 71 1033.7
20260507074503 29 318 12.0 21.0 0.00 0.28 0.00 71 1033.8
20260507074004 29 316 12.0 19.0 0.00 0.28 0.00 71 1033.7
20260507073503 29 315 12.0 19.0 0.00 0.28 0.00 72 1033.8
20260507073003 29 316 12.0 19.0 0.00 0.28 0.00 72 1033.7
20260507072503 29 316 12.0 22.0 0.00 0.28 0.00 72 1033.8
20260507072003 29 317 13.0 22.0 0.00 0.28 0.00 73 1033.9
20260507071720 29 315 13.0 22.0 0.00 0.28 0.00 72 1034.0
20260507071003 29 313 12.0 18.0 0.00 0.28 0.00 75 1034.0
20260507070503 29 315 12.0 18.0 0.00 0.28 0.00 75 1034.0
20260507070006 29 317 12.0 18.0 0.00 0.28 0.00 76 1034.1
20260507065503 29 318 12.0 20.0 0.00 0.28 0.00 77 1034.2
20260507065003 29 316 12.0 20.0 0.00 0.28 0.00 77 1034.1
20260507064504 29 315 11.0 18.0 0.00 0.28 0.00 78 1034.2
20260507064220 29 313 11.0 18.0 0.00 0.28 0.00 78 1034.1
20260507063503 29 311 10.0 20.0 0.00 0.28 0.00 79 1034.2
20260507063221 29 309 10.0 20.0 0.00 0.28 0.00 78 1034.3
20260507062504 29 307 11.0 19.0 0.00 0.28 0.00 81 1034.1
20260507062003 29 311 10.0 19.0 0.00 0.28 0.00 80 1034.2
20260507061503 29 309 9.0 21.0 0.00 0.28 0.00 82 1033.9
20260507061218 29 306 9.0 21.0 0.00 0.28 0.00 81 1034.0
20260507060503 29 302 11.0 19.0 0.00 0.28 0.00 81 1034.0
20260507060004 29 304 11.0 19.0 0.00 0.28 0.00 81 1033.8
20260507055503 29 303 10.0 21.0 0.00 0.28 0.28 82 1033.7
20260507055003 29 305 11.0 21.0 0.00 0.28 0.28 82 1033.5
20260507054503 29 301 11.0 21.0 0.00 0.28 0.28 82 1033.4
20260507054004 28 297 11.0 20.0 0.00 0.28 0.28 82 1033.3
20260507053503 29 301 12.0 20.0 0.00 0.28 0.28 83 1033.3
20260507053004 28 308 11.0 22.0 0.00 0.28 0.28 83 1033.3
20260507052504 28 307 10.0 22.0 0.00 0.28 0.28 83 1033.3
20260507052003 28 305 11.0 23.0 0.00 0.28 0.28 84 1033.2
20260507051503 29 303 10.0 23.0 0.00 0.28 0.28 84 1033.2
20260507051004 28 301 9.0 19.0 0.00 0.28 0.28 85 1033.1
20260507050503 28 305 9.0 16.0 0.00 0.28 0.28 85 1033.2
20260507050003 28 305 8.0 16.0 0.00 0.28 0.28 86 1033.2
20260507045503 28 305 8.0 19.0 0.00 0.28 0.28 87 1033.1
20260507045003 29 302 8.0 19.0 0.00 0.28 0.28 86 1033.3
20260507044503 28 300 9.0 18.0 0.00 0.28 0.28 87 1033.3
20260507044221 29 299 9.0 18.0 0.00 0.28 0.28 87 1033.2
20260507043503 28 298 7.0 15.0 0.00 0.28 0.28 88 1033.0
20260507043003 28 293 6.0 13.0 0.00 0.28 0.28 88 1033.2
20260507042503 28 293 6.0 18.0 0.00 0.28 0.28 88 1033.1
20260507042003 28 287 6.0 18.0 0.00 0.28 0.28 88 1033.1
20260507041503 28 296 7.0 18.0 0.00 0.28 0.28 88 1033.1
20260507041003 28 301 6.0 18.0 0.00 0.28 0.28 89 1033.2
20260507040503 28 303 5.0 13.0 0.00 0.28 0.28 90 1033.1
20260507040003 27 313 4.0 13.0 0.00 0.28 0.28 91 1033.1
20260507035503 26 307 2.0 5.0 0.00 0.28 0.28 91 1033.0
20260507035003 26 318 1.0 4.0 0.00 0.28 0.28 91 1032.9
20260507034503 26 292 1.0 3.0 0.00 0.28 0.28 91 1033.1
20260507034217 26 266 1.0 3.0 0.00 0.28 0.28 91 1033.0
20260507033503 27 248 2.0 7.0 0.00 0.28 0.28 91 1033.1
20260507033003 27 261 2.0 7.0 0.00 0.28 0.28 91 1033.0
20260507032503 27 257 2.0 4.0 0.00 0.28 0.28 91 1032.9
20260507032219 27 264 2.0 4.0 0.00 0.28 0.28 91 1032.9
20260507031503 27 292 4.0 9.0 0.00 0.28 0.28 91 1032.9
20260507031003 27 301 3.0 9.0 0.00 0.28 0.28 91 1032.9
20260507030503 27 312 2.0 9.0 0.00 0.28 0.28 91 1032.9
20260507030221 27 316 2.0 5.0 0.00 0.28 0.28 91 1032.9
20260507025719 27 304 2.0 4.0 0.00 0.28 0.28 91 1032.9
20260507025003 27 292 2.0 4.0 0.00 0.28 0.28 91 1032.7
20260507024503 27 301 3.0 6.0 0.00 0.28 0.28 91 1032.7
20260507024004 27 310 3.0 6.0 0.00 0.28 0.28 91 1032.7
20260507023503 26 310 2.0 4.0 0.00 0.28 0.28 91 1032.6
20260507023003 27 307 3.0 6.0 0.00 0.28 0.28 91 1032.5
20260507022717 27 308 3.0 6.0 0.00 0.28 0.28 91 1032.5
20260507022003 27 305 3.0 6.0 0.00 0.28 0.28 91 1032.4
20260507021503 27 306 4.0 8.0 0.00 0.28 0.28 91 1032.3
20260507021003 27 307 4.0 8.0 0.00 0.28 0.28 92 1032.3
20260507020718 27 303 3.0 7.0 0.00 0.28 0.28 92 1032.3
20260507020003 27 275 3.0 6.0 0.00 0.28 0.28 92 1032.2
20260507015503 27 271 3.0 6.0 0.01 0.28 0.28 92 1032.2
20260507015003 27 275 3.0 6.0 0.01 0.28 0.28 92 1032.2
20260507014503 27 281 3.0 6.0 0.01 0.28 0.28 92 1032.1
20260507014003 28 288 3.0 6.0 0.01 0.28 0.28 92 1032.1
20260507013503 28 297 3.0 8.0 0.01 0.28 0.28 92 1032.1
20260507013003 28 289 3.0 8.0 0.01 0.28 0.28 92 1032.1
20260507012503 28 283 3.0 7.0 0.02 0.28 0.28 92 1032.1
20260507012003 28 275 4.0 7.0 0.02 0.28 0.28 92 1032.1
20260507011718 29 272 4.0 7.0 0.02 0.28 0.28 92 1032.0
20260507011003 30 270 3.0 7.0 0.03 0.28 0.28 92 1031.9
20260507010503 30 286 2.0 7.0 0.03 0.28 0.28 93 1031.9
20260507010003 31 23 1.0 3.0 0.03 0.28 0.28 93 1031.8
20260507005503 31 109 1.0 2.0 0.02 0.27 0.27 94 1031.6
20260507005003 30 107 1.0 3.0 0.02 0.27 0.27 94 1031.6
20260507004721 30 106 2.0 4.0 0.02 0.27 0.27 94 1031.6
20260507004003 30 104 2.0 4.0 0.02 0.28 0.27 93 1031.5
20260507003717 30 106 2.0 4.0 0.03 0.28 0.27 94 1031.4
20260507003003 29 111 2.0 4.0 0.03 0.28 0.27 94 1031.4
20260507002503 30 108 2.0 4.0 0.02 0.27 0.26 94 1031.4
20260507002221 30 107 1.0 4.0 0.02 0.27 0.26 93 1031.4
20260507001503 29 104 2.0 3.0 0.03 0.27 0.26 93 1031.4
20260507001003 29 106 2.0 4.0 0.02 0.26 0.25 93 1031.4
20260507000503 29 111 3.0 6.0 0.02 0.26 0.25 93 1031.4
20260507000004 29 109 2.0 6.0 0.02 0.26 0.25 93 1031.4
20260506235503 29 94 1.0 4.0 0.02 0.26 0.25 93 1031.4
20260506235003 29 83 1.0 3.0 0.02 0.26 0.25 93 1031.4
20260506234503 29 84 2.0 3.0 0.03 0.26 0.25 93 1031.3
20260506234219 29 90 2.0 4.0 0.03 0.26 0.25 93 1031.3
20260506233503 29 109 2.0 4.0 0.02 0.25 0.24 93 1031.3
20260506233003 29 114 1.0 4.0 0.02 0.25 0.24 94 1031.2
20260506232503 29 114 2.0 4.0 0.03 0.25 0.24 93 1031.2
20260506232003 29 112 2.0 4.0 0.03 0.25 0.24 94 1031.1
20260506231503 29 111 2.0 6.0 0.02 0.25 0.23 94 1031.1
20260506231003 29 108 1.0 6.0 0.03 0.25 0.23 93 1031.1
20260506230503 29 99 1.0 4.0 0.03 0.25 0.23 93 1031.0
20260506230003 28 98 1.0 3.0 0.04 0.25 0.23 94 1031.1
20260506225503 28 100 1.0 3.0 0.04 0.25 0.23 94 1031.0
20260506225003 28 110 2.0 6.0 0.05 0.25 0.23 94 1031.0
20260506224503 28 113 3.0 8.0 0.05 0.24 0.22 94 1030.9
20260506224003 28 113 2.0 8.0 0.05 0.24 0.22 94 1030.7
20260506223503 28 118 1.0 6.0 0.06 0.24 0.22 94 1030.8
20260506223003 28 118 3.0 6.0 0.07 0.24 0.22 94 1030.9
20260506222503 28 115 4.0 8.0 0.06 0.23 0.21 94 1030.8
20260506222003 28 115 4.0 8.0 0.07 0.23 0.21 94 1030.8
20260506221504 29 113 4.0 8.0 0.08 0.24 0.21 94 1030.6
20260506221219 29 113 4.0 8.0 0.08 0.24 0.21 94 1030.7
20260506220721 29 110 4.0 8.0 0.08 0.23 0.20 93 1030.7
20260506220003 29 112 3.0 7.0 0.08 0.22 0.19 93 1030.6
20260506215503 29 113 3.0 7.0 0.09 0.22 0.19 93 1030.6
20260506215003 29 113 4.0 7.0 0.09 0.21 0.18 93 1030.6
20260506214503 29 114 4.0 8.0 0.08 0.20 0.17 94 1030.7
20260506214003 29 113 4.0 8.0 0.09 0.20 0.17 94 1030.6
20260506213503 29 111 4.0 8.0 0.09 0.19 0.16 93 1030.6
20260506213217 29 111 3.0 8.0 0.09 0.19 0.16 93 1030.6
20260506212503 29 97 2.0 6.0 0.08 0.19 0.15 93 1030.7
20260506212003 29 108 3.0 9.0 0.08 0.18 0.14 93 1030.7
20260506211721 29 108 3.0 9.0 0.08 0.18 0.14 93 1030.7
20260506211003 29 104 3.0 8.0 0.08 0.17 0.13 93 1030.7